Burlington, IA

9:59 AM CDT on August 21, 2017 (GMT -0500)
Burlington Regional

Weather History for KBRL - October, 2013

Change the Weather History Date:

Friday, October 25, 2013

  Actual Average Record
Temperature  
Mean Temperature 39 °F 52 °F  
Max Temperature 55 °F 62 °F 83 °F (1939)
Min Temperature 23 °F 42 °F 21 °F (1942)
Degree Days  
Heating Degree Days 26 13  
Month to date heating degree days 278 236  
Since 1 July heating degree days 330 307  
Cooling Degree Days 0 0  
Month to date cooling degree days 33 19  
Year to date cooling degree days 1115 1201  
Moisture  
Dew Point 25 °F    
Average Humidity 62    
Maximum Humidity 100    
Minimum Humidity 24    
Precipitation  
Precipitation 0.00 in 0.09 in 0.69 in (1960)
Month to date precipitation 0.52 2.54  
Year to date precipitation 28.78 33.31  
Sea Level Pressure  
Sea Level Pressure 30.33 in    
Wind  
Wind Speed 8 mph (SW)    
Max Wind Speed 21 mph    
Max Gust Speed 29 mph    
Visibility 10 miles    
Events      
T = Trace of Precipitation, MM = Missing Value Source: NWS Daily Summary

Daily Weather History Graph

Daily Weather History Graph

Search for Another Location

Airport or City:

Trip Planner

Search our weather history database for the weather conditions in past years. The results will help you decide how hot, cold, wet, or windy it might be!

Date:

Astronomy

Oct. 25, 2013 Rise Set
Actual Time 7:27 AM CDT 6:09 PM CDT
Civil Twilight 6:59 AM CDT 6:37 PM CDT
Nautical Twilight 6:27 AM CDT 7:09 PM CDT
Astronomical Twilight 5:55 AM CDT 7:41 PM CDT
Moon 11:28 PM CDT (10/25) 1:08 PM CDT (10/25)
Length of Visible Light 11h 38m
Length of Day
10h 42m
Waning Gibbous, 62% of the Moon is Illuminated
Oct 25
Waning Gibbous
Oct 26
Last Quarter
Nov 3
New
Nov 9
First Quarter
Nov 17
Full

Hourly Weather History & Observations

Time (CDT) Temp. Windchill Dew Point Humidity Pressure Visibility Wind Dir Wind Speed Gust Speed Precip Events Conditions
12:53 AM 26.1 °F 21.9 °F 24.1 °F 92% 30.40 in 10.0 mi NW 3.5 mph - N/A   Clear
1:53 AM 28.0 °F 24.2 °F 24.1 °F 85% 30.42 in 10.0 mi WNW 3.5 mph - N/A   Clear
2:53 AM 30.0 °F 26.5 °F 26.1 °F 85% 30.43 in 10.0 mi WNW 3.5 mph - N/A   Scattered Clouds
3:53 AM 27.0 °F - 24.1 °F 89% 30.43 in 10.0 mi Calm Calm - N/A   Partly Cloudy
4:53 AM 27.0 °F - 24.1 °F 89% 30.43 in 10.0 mi Calm Calm - N/A   Partly Cloudy
5:53 AM 27.0 °F - 25.0 °F 92% 30.45 in 10.0 mi Calm Calm - N/A   Clear
6:53 AM 25.0 °F 19.3 °F 23.0 °F 92% 30.45 in 10.0 mi SSW 4.6 mph - N/A   Clear
7:53 AM 25.0 °F 19.3 °F 24.1 °F 96% 30.45 in 10.0 mi SW 4.6 mph - N/A   Clear
8:53 AM 32.0 °F 26.4 °F 28.0 °F 85% 30.46 in 10.0 mi SW 5.8 mph - N/A   Clear
9:53 AM 37.9 °F 33.5 °F 30.0 °F 73% 30.46 in 10.0 mi WSW 5.8 mph - N/A   Clear
10:53 AM 46.0 °F 42.5 °F 30.0 °F 54% 30.44 in 10.0 mi West 6.9 mph - N/A   Clear
11:53 AM 51.1 °F - 28.0 °F 41% 30.42 in 10.0 mi WSW 10.4 mph 16.1 mph N/A   Clear
12:53 PM 52.0 °F - 25.0 °F 35% 30.39 in 10.0 mi West 10.4 mph - N/A   Clear
1:53 PM 53.1 °F - 25.0 °F 34% 30.35 in 10.0 mi SW 15.0 mph 23.0 mph N/A   Clear
2:53 PM 55.0 °F - 21.9 °F 28% 30.31 in 10.0 mi SSW 17.3 mph 26.5 mph N/A   Clear
3:53 PM 55.0 °F - 19.9 °F 25% 30.27 in 10.0 mi WSW 13.8 mph 26.5 mph N/A   Clear
4:53 PM 54.0 °F - 19.9 °F 26% 30.25 in 10.0 mi SW 16.1 mph - N/A   Clear
5:53 PM 51.1 °F - 21.9 °F 32% 30.22 in 9.0 mi SW 11.5 mph - N/A   Clear
6:53 PM 45.0 °F 40.1 °F 23.0 °F 42% 30.21 in 10.0 mi SSW 9.2 mph - N/A   Clear
7:53 PM 43.0 °F 38.2 °F 26.1 °F 51% 30.20 in 10.0 mi SSW 8.1 mph - N/A   Clear
8:53 PM 44.1 °F 38.6 °F 26.1 °F 49% 30.17 in 10.0 mi SSW 10.4 mph - N/A   Clear
9:53 PM 42.1 °F 36.1 °F 27.0 °F 55% 30.16 in 10.0 mi SSW 10.4 mph - N/A   Clear
10:53 PM 41.0 °F 35.2 °F 28.0 °F 60% 30.15 in 10.0 mi SSW 9.2 mph - N/A   Clear
11:53 PM 42.1 °F 35.7 °F 28.0 °F 58% 30.11 in 10.0 mi SSW 11.5 mph - N/A   Clear